Voltar ao catálogo

ARIANE 44L DEB

LostHEO
NORAD 33589·DEBRIS·🇫🇷 France

Lançado Jan 15, 1991 de Guiana Space Centre

Loading…

Próximas Passagens (próximas 24 horas)

TLE

ObsoletoSource: Space-Track

Época: Jun 5, 2019, 06:49 UTC

1 33589U 91003S   19156.28428763 -.00000001  00000-0  39291-2 0  9991
2 33589   7.5114   0.3168 6752729 232.4889  45.0370  2.63585777124556

Acompanhe ARIANE 44L DEB em tempo real com AllMySat

Download on the App Store